EW2964 Weather Reports


Display with metric or nautical units.
time (UTC)temp
F
wind
direction
speed
MPH
gust
MPH
rain 1hr
in
rain 24hr
in
rain mn
in
humidity
%
barometer
mb
20260831214402 80 260 1.0 3.0 0.00 0.00 0.00 76 1021.6
20260831213902 81 227 1.0 2.0 0.00 0.00 0.00 74 1021.5
20260831213403 81 227 1.0 2.0 0.00 0.00 0.00 73 1021.5
20260831213019 81 310 0.0 4.0 0.00 0.00 0.00 72 1022.2
20260831212903 82 310 2.0 5.0 0.00 0.00 0.00 70 1021.4
20260831212402 82 310 2.0 5.0 0.00 0.00 0.00 68 1021.2
20260831211903 82 232 2.0 6.0 0.00 0.00 0.00 70 1021.2
20260831211517 82 319 2.0 5.0 0.00 0.00 0.00 67 1022.0
20260831211403 83 306 3.0 6.0 0.00 0.00 0.00 65 1021.2
20260831210903 83 264 2.0 5.0 0.00 0.00 0.00 65 1021.3
20260831210403 82 303 5.0 6.0 0.00 0.00 0.00 66 1021.5
20260831210019 81 13 3.0 8.0 0.00 0.00 0.00 67 1022.2
20260831205903 81 332 5.0 7.0 0.00 0.00 0.00 66 1021.4
20260831205403 81 327 5.0 8.0 0.00 0.00 0.00 67 1021.4
20260831204521 82 321 1.0 8.0 0.00 0.00 0.00 66 1022.3
20260831204402 82 40 1.0 5.0 0.00 0.00 0.00 66 1021.4
20260831203902 82 302 5.0 8.0 0.00 0.00 0.00 64 1021.5
20260831203403 82 310 1.0 3.0 0.00 0.00 0.00 65 1021.5
20260831203020 81 333 1.0 9.0 0.00 0.00 0.00 67 1022.3
20260831202903 82 325 2.0 5.0 0.00 0.00 0.00 66 1021.6
20260831202403 82 304 5.0 9.0 0.00 0.00 0.00 63 1021.6
20260831201903 82 309 1.0 9.0 0.00 0.00 0.00 64 1021.6
20260831201522 82 44 4.0 11.0 0.00 0.00 0.00 64 1022.4
20260831201403 83 298 3.0 7.0 0.00 0.00 0.00 64 1021.6
20260831200403 82 304 6.0 10.0 0.00 0.00 0.00 66 1021.8
20260831200044 82 15 2.0 9.0 0.00 0.00 0.00 67 1022.5
20260831195903 82 2 5.0 9.0 0.00 0.00 0.00 64 1021.8
20260831194903 81 206 1.0 3.0 0.00 0.00 0.00 69 1021.7
20260831194519 81 213 1.0 7.0 0.00 0.00 0.00 70 1022.5
20260831194403 81 187 1.0 3.0 0.00 0.00 0.00 67 1021.9
20260831193902 81 258 2.0 7.0 0.00 0.00 0.00 67 1021.9
20260831193402 81 234 2.0 6.0 0.00 0.00 0.00 67 1022.0
20260831193017 81 247 2.0 8.0 0.00 0.00 0.00 68 1022.7
20260831192903 81 213 2.0 8.0 0.00 0.00 0.00 68 1022.1
20260831192403 81 270 2.0 8.0 0.00 0.00 0.00 69 1022.1
20260831191903 81 247 4.0 7.0 0.00 0.00 0.00 68 1022.2
20260831191523 80 257 3.0 7.0 0.00 0.00 0.00 69 1022.9
20260831190902 81 268 2.0 6.0 0.00 0.00 0.00 68 1022.4
20260831190402 80 272 4.0 8.0 0.00 0.00 0.00 69 1022.4
20260831190035 80 183 2.0 6.0 0.00 0.00 0.00 72 1023.2
20260831185903 80 202 4.0 7.0 0.00 0.00 0.00 70 1022.5
20260831185403 80 15 2.0 8.0 0.00 0.00 0.00 69 1022.6
20260831184903 80 252 3.0 8.0 0.00 0.00 0.00 72 1022.5
20260831184527 80 242 3.0 8.0 0.00 0.00 0.00 72 1023.3
20260831184403 80 209 6.0 9.0 0.00 0.00 0.00 70 1022.5
20260831183903 80 307 1.0 3.0 0.00 0.00 0.00 73 1022.6
20260831183403 79 244 1.0 3.0 0.00 0.00 0.00 73 1022.7
20260831183012 79 216 1.0 3.0 0.00 0.00 0.00 75 1023.5
20260831182902 79 259 1.0 3.0 0.00 0.00 0.00 74 1022.7
20260831182402 79 277 1.0 3.0 0.00 0.00 0.00 74 1022.8
20260831181525 78 247 2.0 4.0 0.00 0.00 0.00 76 1023.6
20260831180903 79 214 1.0 3.0 0.00 0.00 0.00 74 1022.7
20260831180402 78 209 2.0 5.0 0.00 0.00 0.00 75 1022.8
20260831180030 78 265 1.0 4.0 0.00 0.00 0.00 77 1023.6
20260831175902 78 297 2.0 3.0 0.00 0.00 0.00 76 1022.8
20260831175403 78 239 2.0 6.0 0.00 0.00 0.00 78 1022.7
20260831174902 78 269 1.0 3.0 0.00 0.00 0.00 79 1022.8
20260831174528 78 269 0.0 3.0 0.00 0.00 0.00 82 1023.6
20260831174403 78 263 0.0 3.0 0.00 0.00 0.00 80 1022.8
20260831173403 78 223 0.0 3.0 0.00 0.00 0.00 83 1022.8
20260831173033 77 223 2.0 3.0 0.00 0.00 0.00 85 1023.6
20260831172903 77 254 1.0 3.0 0.00 0.00 0.00 84 1022.9
20260831172402 77 317 2.0 3.0 0.00 0.00 0.00 85 1022.7
20260831171903 77 327 0.0 3.0 0.00 0.00 0.00 82 1022.8
20260831171517 77 330 0.0 3.0 0.00 0.00 0.00 87 1023.6
20260831171403 77 330 1.0 2.0 0.00 0.00 0.00 82 1022.8
20260831170902 77 330 2.0 3.0 0.00 0.00 0.00 85 1022.8
20260831170403 77 300 0.0 1.0 0.00 0.00 0.00 85 1022.9
20260831170032 76 300 0.0 3.0 0.00 0.00 0.00 87 1023.7
20260831165902 77 300 1.0 3.0 0.00 0.00 0.00 85 1022.9
20260831165402 77 300 1.0 3.0 0.00 0.00 0.00 83 1022.9
20260831164903 77 300 0.0 2.0 0.00 0.00 0.00 83 1022.9
20260831164529 77 300 0.0 2.0 0.00 0.00 0.00 85 1023.7
20260831164403 78 94 0.0 2.0 0.00 0.00 0.00 83 1022.9
20260831163903 78 94 0.0 2.0 0.00 0.00 0.00 82 1022.9
20260831163403 78 94 1.0 2.0 0.00 0.00 0.00 82 1022.9
20260831163032 77 94 0.0 1.0 0.00 0.00 0.00 82 1023.7
20260831162904 78 94 0.0 1.0 0.00 0.00 0.00 81 1023.0
20260831162403 78 94 0.0 0.0 0.00 0.00 0.00 81 1023.1
20260831161902 78 94 0.0 2.0 0.00 0.00 0.00 81 1023.0
20260831161532 77 94 0.0 2.0 0.00 0.00 0.00 82 1023.9
20260831160903 77 94 1.0 2.0 0.00 0.00 0.00 81 1023.1
20260831160403 77 93 1.0 2.0 0.00 0.00 0.00 81 1023.0
20260831160021 76 144 0.0 4.0 0.00 0.00 0.00 83 1023.8
20260831155902 77 144 1.0 5.0 0.00 0.00 0.00 81 1023.0
20260831155403 77 155 3.0 6.0 0.00 0.00 0.00 81 1023.0
20260831154903 77 121 3.0 6.0 0.00 0.00 0.00 81 1023.0
20260831154552 76 82 1.0 5.0 0.00 0.00 0.00 83 1023.7
20260831154403 77 144 2.0 5.0 0.00 0.00 0.00 82 1022.9
20260831153903 77 115 3.0 5.0 0.00 0.00 0.00 82 1022.9
20260831153403 76 113 4.0 6.0 0.00 0.00 0.00 82 1023.0
20260831153030 76 59 1.0 5.0 0.00 0.00 0.00 84 1023.7
20260831152903 76 92 3.0 6.0 0.00 0.00 0.00 82 1023.1
20260831152403 75 114 2.0 5.0 0.00 0.00 0.00 85 1023.1
20260831151903 74 103 1.0 3.0 0.00 0.00 0.00 86 1023.1
20260831151530 74 117 1.0 3.0 0.00 0.00 0.00 88 1024.0
20260831151403 74 126 2.0 3.0 0.00 0.00 0.00 87 1023.2
20260831150903 73 111 1.0 3.0 0.00 0.00 0.00 87 1023.2
20260831150033 73 129 1.0 2.0 0.00 0.00 0.00 88 1024.1
20260831145903 73 129 1.0 2.0 0.00 0.00 0.00 87 1023.3
20260831145403 73 129 1.0 2.0 0.00 0.00 0.00 88 1023.3
20260831144524 72 129 0.0 2.0 0.00 0.00 0.00 89 1024.1
20260831144403 72 129 1.0 2.0 0.00 0.00 0.00 88 1023.3
20260831143902 72 129 1.0 2.0 0.00 0.00 0.00 88 1023.3
20260831143027 71 129 1.0 3.0 0.00 0.00 0.00 90 1024.0
20260831142903 72 79 1.0 3.0 0.00 0.00 0.00 88 1023.3
20260831142402 71 61 1.0 2.0 0.00 0.00 0.00 89 1023.1
20260831141904 71 61 1.0 2.0 0.00 0.00 0.00 89 1023.1
20260831141510 70 61 1.0 3.0 0.00 0.00 0.00 91 1023.8
20260831141403 70 61 2.0 3.0 0.00 0.00 0.00 90 1022.9
20260831140902 70 61 2.0 3.0 0.00 0.00 0.00 91 1022.9
20260831140403 70 126 1.0 3.0 0.00 0.00 0.00 91 1022.9
20260831140030 69 126 1.0 3.0 0.00 0.00 0.00 93 1023.7
20260831135902 69 126 2.0 3.0 0.00 0.00 0.00 91 1023.0
20260831135402 69 63 1.0 3.0 0.00 0.00 0.00 92 1023.1
20260831134903 69 61 0.0 3.0 0.00 0.00 0.00 92 1023.1
20260831134519 68 138 0.0 3.0 0.00 0.00 0.00 94 1023.9
20260831134402 69 138 1.0 3.0 0.00 0.00 0.00 92 1023.1
20260831133903 68 84 0.0 0.0 0.00 0.00 0.00 93 1023.2
20260831133403 68 303 0.0 0.0 0.00 0.00 0.00 93 1023.1
20260831133003 67 303 0.0 0.0 0.00 0.00 0.00 95 1023.8
20260831131903 67 303 0.0 0.0 0.00 0.00 0.00 94 1023.0
20260831131507 67 303 0.0 0.0 0.00 0.00 0.00 98 1023.8
20260831131403 67 303 0.0 0.0 0.00 0.00 0.00 96 1023.0
20260831130403 66 303 0.0 1.0 0.00 0.00 0.00 96 1023.2
20260831130010 65 304 0.0 1.0 0.00 0.00 0.00 98 1023.8
20260831125902 66 303 0.0 1.0 0.00 0.00 0.00 100 1023.2
20260831125403 66 303 0.0 1.0 0.00 0.00 0.00 100 1023.2
20260831124903 65 303 0.0 1.0 0.00 0.00 0.00 100 1023.0
20260831124516 64 303 0.0 1.0 0.00 0.00 0.00 98 1023.8
20260831124403 65 303 0.0 1.0 0.00 0.00 0.00 100 1023.1
20260831123026 63 303 0.0 1.0 0.00 0.00 0.00 98 1023.8
20260831122904 64 303 0.0 0.0 0.00 0.00 0.00 100 1023.0
20260831121503 63 303 0.0 2.0 0.00 0.00 0.00 98 1023.7
20260831121403 63 303 0.0 2.0 0.00 0.00 0.00 100 1023.0
20260831120903 63 303 1.0 2.0 0.00 0.00 0.00 100 1022.9
20260831120403 63 303 1.0 2.0 0.00 0.00 0.00 100 1022.9
20260831120017 62 303 0.0 1.0 0.00 0.00 0.00 98 1023.6
20260831115903 63 303 0.0 1.0 0.00 0.00 0.00 100 1022.8
20260831114903 62 303 0.0 1.0 0.00 0.00 0.00 100 1022.8
20260831114516 62 303 0.0 2.0 0.00 0.00 0.00 98 1023.6
20260831114403 62 303 1.0 2.0 0.00 0.00 0.00 100 1022.8
20260831113903 62 303 1.0 2.0 0.00 0.00 0.00 100 1022.8
20260831113402 62 303 0.0 2.0 0.00 0.00 0.00 100 1022.7
20260831113023 61 303 0.0 0.0 0.00 0.00 0.00 98 1023.5
20260831112903 62 303 0.0 0.0 0.00 0.00 0.00 100 1022.7
20260831112403 62 303 0.0 0.0 0.00 0.00 0.00 100 1022.6
20260831111903 62 303 0.0 0.0 0.00 0.00 0.00 100 1022.5
20260831111530 61 303 0.0 2.0 0.00 0.01 0.00 98 1023.3
20260831110903 62 303 1.0 2.0 0.00 0.01 0.00 96 1022.4
20260831110403 62 303 2.0 3.0 0.00 0.01 0.00 100 1022.4
20260831110006 61 273 1.0 2.0 0.00 0.01 0.00 98 1023.1
20260831105903 62 273 1.0 2.0 0.00 0.01 0.00 96 1022.4
20260831105403 62 273 1.0 2.0 0.00 0.01 0.00 96 1022.3
20260831104902 62 273 0.0 2.0 0.00 0.01 0.00 96 1022.3
20260831104517 61 273 0.0 2.0 0.00 0.01 0.00 98 1023.1
20260831104402 62 273 1.0 2.0 0.00 0.01 0.00 100 1022.3
20260831103902 62 273 0.0 0.0 0.00 0.01 0.00 96 1022.2
20260831103018 61 273 0.0 2.0 0.00 0.01 0.00 98 1022.9
20260831102903 62 273 1.0 2.0 0.00 0.01 0.00 96 1022.2
20260831102403 62 273 1.0 2.0 0.00 0.01 0.00 100 1022.2
20260831101903 62 273 0.0 2.0 0.00 0.01 0.00 100 1022.1
20260831101526 61 273 1.0 2.0 0.00 0.01 0.00 98 1022.9
20260831101403 62 273 1.0 2.0 0.00 0.01 0.00 100 1022.2
20260831100903 62 273 1.0 2.0 0.00 0.01 0.00 100 1022.2
20260831100402 62 273 1.0 2.0 0.00 0.01 0.00 96 1022.2
20260831100034 61 273 0.0 2.0 0.00 0.01 0.00 98 1023.0
20260831094902 62 273 1.0 2.0 0.00 0.01 0.00 96 1022.1
20260831094512 62 273 0.0 2.0 0.00 0.01 0.00 98 1022.8
20260831094403 62 273 1.0 2.0 0.00 0.01 0.00 96 1022.0
20260831093902 62 273 1.0 2.0 0.00 0.01 0.00 96 1022.0
20260831093019 62 306 0.0 3.0 0.00 0.01 0.00 98 1022.8
20260831092903 62 306 1.0 3.0 0.00 0.01 0.00 96 1022.1
20260831092403 62 306 0.0 2.0 0.00 0.01 0.00 96 1022.1
20260831091524 62 306 0.0 2.0 0.00 0.01 0.00 98 1022.9
20260831091403 62 306 0.0 2.0 0.00 0.01 0.00 96 1022.2
20260831090903 62 306 1.0 2.0 0.00 0.01 0.00 96 1022.1
20260831090403 62 306 2.0 3.0 0.00 0.01 0.00 96 1022.1
20260831090030 62 266 1.0 2.0 0.00 0.01 0.00 98 1022.8
20260831085903 62 266 1.0 2.0 0.00 0.01 0.00 96 1022.0
20260831084903 63 266 0.0 2.0 0.00 0.01 0.00 96 1022.0
20260831084531 62 266 0.0 2.0 0.00 0.01 0.00 98 1022.6
20260831084403 63 266 1.0 2.0 0.00 0.01 0.00 96 1021.9
20260831083903 63 266 0.0 1.0 0.00 0.01 0.00 96 1022.0
20260831083403 63 266 1.0 3.0 0.00 0.01 0.00 96 1022.0
20260831083011 62 266 1.0 3.0 0.00 0.01 0.00 98 1022.7
20260831082903 63 258 2.0 3.0 0.00 0.01 0.00 96 1021.9
20260831082403 63 264 0.0 0.0 0.00 0.01 0.00 96 1021.9
20260831081903 63 258 0.0 0.0 0.00 0.01 0.00 96 1021.9
20260831081522 63 258 0.0 1.0 0.00 0.01 0.00 98 1022.6
20260831081403 63 258 0.0 0.0 0.00 0.01 0.00 96 1021.9
20260831080903 63 258 0.0 1.0 0.00 0.01 0.00 96 1021.8
20260831080403 63 258 0.0 1.0 0.00 0.01 0.00 96 1021.8
20260831080004 63 258 0.0 2.0 0.00 0.01 0.00 97 1022.5
20260831075903 63 258 0.0 1.0 0.00 0.01 0.00 96 1021.7
20260831075404 63 258 1.0 2.0 0.00 0.01 0.00 96 1021.7
20260831074902 63 291 1.0 3.0 0.00 0.01 0.00 96 1021.6
20260831074503 63 295 1.0 3.0 0.00 0.01 0.00 97 1022.4
20260831074403 64 298 1.0 3.0 0.00 0.01 0.00 96 1021.6
20260831073903 64 292 1.0 2.0 0.00 0.01 0.00 96 1021.5
20260831073403 64 267 1.0 2.0 0.00 0.01 0.00 96 1021.5
20260831073010 63 267 1.0 3.0 0.00 0.01 0.00 98 1022.3
20260831072903 64 267 1.0 3.0 0.00 0.01 0.00 96 1021.5
20260831071903 64 300 1.0 3.0 0.00 0.01 0.00 96 1021.5
20260831071515 64 300 1.0 3.0 0.00 0.01 0.00 97 1022.3
20260831071403 64 300 1.0 3.0 0.00 0.01 0.00 96 1021.6
20260831070903 64 277 1.0 3.0 0.00 0.01 0.00 96 1021.6
20260831070403 64 277 1.0 3.0 0.00 0.01 0.00 96 1021.7
20260831070023 64 277 2.0 3.0 0.00 0.01 0.00 97 1022.5
20260831065903 64 284 2.0 3.0 0.00 0.01 0.00 96 1021.6
20260831064903 65 311 1.0 2.0 0.00 0.01 0.00 95 1021.7
20260831064504 64 310 0.0 1.0 0.00 0.01 0.00 97 1022.4
20260831064403 65 311 1.0 1.0 0.00 0.01 0.00 95 1021.7
20260831063902 65 311 1.0 1.0 0.00 0.01 0.00 96 1021.8
20260831063403 65 311 1.0 2.0 0.00 0.01 0.00 96 1021.8
20260831063009 65 311 0.0 2.0 0.00 0.01 0.00 97 1022.6
20260831062902 65 311 1.0 2.0 0.00 0.01 0.00 95 1021.8
20260831061903 65 311 1.0 2.0 0.00 0.01 0.00 95 1021.8
20260831061514 65 311 1.0 2.0 0.00 0.01 0.00 97 1022.6
20260831061403 65 311 1.0 2.0 0.00 0.01 0.00 95 1021.8
20260831060403 66 311 1.0 2.0 0.00 0.01 0.00 95 1022.0
20260831060018 65 311 0.0 1.0 0.00 0.01 0.00 96 1022.8
20260831055903 66 311 0.0 1.0 0.00 0.01 0.00 95 1022.0
20260831055402 66 311 0.0 1.0 0.00 0.01 0.00 95 1022.1
20260831054523 66 311 0.0 3.0 0.00 0.01 0.00 97 1022.9
20260831054403 66 311 1.0 2.0 0.00 0.01 0.00 95 1022.2
20260831053903 66 311 1.0 3.0 0.00 0.01 0.00 95 1022.2
20260831053402 66 311 1.0 3.0 0.00 0.01 0.00 95 1022.3
20260831053003 66 246 1.0 4.0 0.00 0.01 0.00 96 1023.0
20260831052903 66 248 3.0 5.0 0.00 0.01 0.00 95 1022.4
20260831052402 66 279 1.0 3.0 0.00 0.01 0.00 95 1022.3
20260831051903 67 284 0.0 0.0 0.00 0.01 0.00 95 1022.4
20260831051518 66 284 0.0 1.0 0.00 0.01 0.00 96 1023.1
20260831051403 67 284 0.0 0.0 0.00 0.01 0.00 95 1022.5
20260831050903 67 284 0.0 1.0 0.00 0.01 0.00 95 1022.5
20260831050403 67 284 0.0 1.0 0.00 0.01 0.00 95 1022.4
20260831050015 66 284 0.0 2.0 0.00 0.01 0.00 96 1023.2
20260831045403 67 284 0.0 2.0 0.00 0.01 0.00 94 1022.4
20260831044522 66 284 0.0 0.0 0.00 0.01 0.00 96 1023.1
20260831044403 67 284 0.0 0.0 0.00 0.01 0.00 94 1022.4
20260831043403 67 284 0.0 0.0 0.00 0.01 0.00 94 1022.5
20260831043028 66 284 0.0 2.0 0.00 0.01 0.00 96 1023.2
20260831042903 67 284 0.0 1.0 0.00 0.01 0.00 94 1022.5
20260831042403 67 284 0.0 2.0 0.00 0.01 0.00 94 1022.6
20260831041903 67 284 0.0 1.0 0.00 0.01 0.00 94 1022.6
20260831041508 66 284 0.0 2.0 0.00 0.01 0.00 96 1023.4
20260831040904 67 284 1.0 1.0 0.00 0.01 0.00 94 1022.8
20260831040402 67 284 1.0 2.0 0.00 0.01 0.00 94 1022.8
20260831040012 66 284 0.0 2.0 0.00 0.01 0.00 96 1023.6
20260831035903 67 284 1.0 2.0 0.00 0.01 0.01 94 1022.9
20260831035403 67 284 0.0 0.0 0.00 0.01 0.01 94 1022.7
20260831034519 66 284 0.0 0.0 0.00 0.01 0.01 96 1023.6
20260831034403 67 284 0.0 0.0 0.00 0.01 0.01 94 1022.6
20260831033903 67 284 0.0 0.0 0.00 0.01 0.01 94 1022.6
20260831033403 67 284 0.0 0.0 0.00 0.01 0.01 94 1022.6
20260831033047 66 284 0.0 0.0 0.00 0.01 0.01 95 1023.5
20260831032903 67 284 0.0 0.0 0.00 0.01 0.01 94 1022.6
20260831031903 67 227 0.0 0.0 0.00 0.01 0.01 93 1022.6
20260831031527 67 227 0.0 1.0 0.00 0.01 0.01 95 1023.4
20260831031403 67 227 1.0 1.0 0.00 0.01 0.01 93 1022.6
20260831030903 67 227 1.0 1.0 0.00 0.01 0.01 93 1022.7
20260831030403 67 227 0.0 1.0 0.00 0.01 0.01 93 1022.7
20260831030011 67 227 0.0 0.0 0.00 0.01 0.01 95 1023.5
20260831025903 67 227 0.0 0.0 0.00 0.01 0.01 93 1022.7
20260831025403 67 227 0.0 0.0 0.00 0.01 0.01 93 1022.7
20260831024517 67 227 0.0 3.0 0.00 0.01 0.01 95 1023.5
20260831024403 67 227 0.0 1.0 0.00 0.01 0.01 93 1022.7
20260831023403 67 312 1.0 3.0 0.00 0.01 0.01 94 1022.8
20260831023022 67 312 2.0 4.0 0.00 0.01 0.01 95 1023.5
20260831022903 67 310 2.0 5.0 0.00 0.01 0.01 93 1022.7
20260831021526 67 257 0.0 4.0 0.00 0.01 0.01 94 1023.4
20260831021403 67 257 1.0 2.0 0.00 0.01 0.01 93 1022.7
20260831020903 67 257 3.0 5.0 0.00 0.01 0.01 93 1022.7
20260831020031 66 276 1.0 3.0 0.00 0.01 0.01 95 1023.5
20260831015903 67 287 1.0 3.0 0.00 0.01 0.01 93 1022.8
20260831015403 67 279 2.0 3.0 0.00 0.01 0.01 93 1022.8
20260831014903 67 309 1.0 2.0 0.00 0.01 0.01 93 1022.8
20260831014513 67 309 0.0 2.0 0.00 0.01 0.01 95 1023.5
20260831014403 67 309 0.0 2.0 0.00 0.01 0.01 93 1022.8
20260831013903 67 309 1.0 2.0 0.00 0.01 0.01 93 1022.8
20260831013403 67 309 1.0 3.0 0.00 0.01 0.01 93 1022.9
20260831013019 67 309 1.0 3.0 0.00 0.01 0.01 95 1023.6
20260831012903 67 309 1.0 3.0 0.00 0.01 0.01 93 1022.9
20260831012403 67 317 1.0 2.0 0.00 0.01 0.01 93 1022.8
20260831011903 67 317 1.0 2.0 0.00 0.01 0.01 93 1022.8
20260831011531 67 317 1.0 2.0 0.00 0.01 0.01 94 1023.5
20260831011403 67 317 1.0 2.0 0.00 0.01 0.01 93 1022.8
20260831010903 67 317 1.0 2.0 0.00 0.01 0.01 93 1022.7
20260831010402 67 317 1.0 3.0 0.00 0.01 0.01 93 1022.6
20260831010030 67 294 1.0 4.0 0.00 0.01 0.01 94 1023.4
20260831005903 67 294 2.0 3.0 0.00 0.01 0.01 93 1022.6
20260831005402 67 306 3.0 5.0 0.00 0.01 0.01 92 1022.5
20260831004903 68 309 3.0 5.0 0.00 0.01 0.01 92 1022.4
20260831004534 67 312 2.0 4.0 0.00 0.01 0.01 93 1023.1
20260831004403 68 311 3.0 5.0 0.00 0.01 0.01 92 1022.3
20260831003903 68 309 3.0 6.0 0.00 0.01 0.01 92 1022.3
20260831003403 68 267 2.0 3.0 0.00 0.01 0.01 92 1022.1
20260831003027 68 269 2.0 4.0 0.00 0.01 0.01 93 1022.8
20260831002402 69 320 2.0 5.0 0.00 0.01 0.01 91 1022.0
20260831001903 69 306 3.0 3.0 0.00 0.01 0.01 90 1021.9
20260831001506 69 311 2.0 4.0 0.00 0.01 0.01 92 1022.6
20260831000903 69 310 3.0 5.0 0.00 0.01 0.01 90 1021.6
20260831000403 70 292 2.0 5.0 0.00 0.01 0.01 89 1021.5
20260831000003 69 293 2.0 6.0 0.00 0.01 0.01 91 1022.3
20260830235903 70 272 2.0 6.0 0.00 0.01 0.01 89 1021.5
20260830235403 70 311 3.0 6.0 0.00 0.01 0.01 88 1021.3
20260830234903 70 265 3.0 5.0 0.00 0.01 0.01 88 1021.5
20260830234518 70 300 1.0 6.0 0.00 0.01 0.01 89 1022.3
20260830233403 71 300 4.0 6.0 0.00 0.01 0.01 86 1021.4
20260830233011 71 299 2.0 6.0 0.00 0.01 0.01 87 1022.2
20260830231903 73 287 3.0 5.0 0.00 0.01 0.01 84 1021.4
20260830231519 73 291 1.0 6.0 0.00 0.01 0.01 85 1022.2
20260830231403 73 291 1.0 6.0 0.00 0.01 0.01 83 1021.5
20260830230903 74 284 4.0 6.0 0.00 0.01 0.01 82 1021.4
20260830230403 74 294 2.0 5.0 0.00 0.01 0.01 81 1021.4
20260830230022 74 286 2.0 4.0 0.00 0.01 0.01 81 1022.1
20260830225403 75 282 2.0 3.0 0.00 0.01 0.01 80 1021.4
20260830224903 75 303 3.0 6.0 0.00 0.01 0.01 78 1021.4
20260830224504 75 288 1.0 4.0 0.00 0.01 0.01 79 1022.3
20260830224403 76 293 2.0 5.0 0.00 0.01 0.01 78 1021.6
20260830223904 77 304 2.0 3.0 0.00 0.01 0.01 76 1021.5
20260830223403 77 194 1.0 2.0 0.00 0.01 0.01 74 1021.4
20260830223010 77 182 0.0 3.0 0.00 0.01 0.01 75 1022.2
20260830222903 78 190 1.0 2.0 0.00 0.01 0.01 74 1021.5
20260830222403 78 196 1.0 3.0 0.00 0.01 0.01 72 1021.5
20260830221903 79 196 1.0 3.0 0.00 0.01 0.01 69 1021.4
20260830221521 79 245 1.0 4.0 0.00 0.01 0.01 70 1022.3
20260830221403 79 252 1.0 3.0 0.00 0.01 0.01 68 1021.6
20260830220904 79 314 3.0 5.0 0.00 0.01 0.01 66 1021.8
20260830220403 79 7 2.0 5.0 0.00 0.01 0.01 67 1021.8
20260830220024 78 296 3.0 8.0 0.00 0.01 0.01 68 1022.6
20260830215403 78 290 5.0 8.0 0.00 0.02 0.01 67 1021.8
20260830214903 77 335 5.0 8.0 0.00 0.04 0.01 68 1021.8
20260830214526 77 296 3.0 7.0 0.00 0.08 0.01 70 1022.5